QPF
0.00 0.00 0.00 0.00 0.00 0.00 0.00 0.00 0.00 0.00 0.00 0.00 0.00 0.00 0.00 0.00 0.00 0.00 0.00 0.00 0.00 0.00 0.00 0.00 0.00 0.00 0.00 0.00 0.00 0.00 0.00 0.00 0.00 0.00 0.00 0.00 0.00 0.00 0.00 0.00 0.00 0.00 0.00 0.00 0.00
0.00 0.00 0.00 0.00 0.00 0.00 0.00 0.00 0.00 0.00 0.00 0.00 0.00 0.00 0.00 0.00 0.00 0.00 0.00 0.00 0.00 0.00 0.00 0.00 0.00 0.00 0.00 0.00 0.00 0.00 0.00 0.00 0.00 0.00 0.00 0.00 0.00 0.00 0.00 0.00 0.00 0.00 0.00 0.00 0.00
0.00 0.00 0.00 0.00 0.00 0.00 0.00 0.00 0.00 0.00 0.00 0.00 0.00 0.00 0.00 0.00 0.00 0.00 0.00 0.00 0.00 0.00 0.00 0.00 0.00 0.00 0.00 0.00 0.00 0.00 0.00 0.00 0.00 0.00 0.00 0.00 0.00 0.00 0.00 0.00 0.00 0.00 0.00 0.00 0.00
0.00 0.00 0.00 0.00 0.00 0.00 0.00 0.00 0.00 0.00 0.00 0.00 0.00 0.00 0.00 0.00 0.00 0.00 0.00 0.00 0.00 0.00 0.00 0.00 0.00 0.00 0.00 0.00 0.00 0.00 0.00 0.00 0.00 0.00 0.00 0.00 0.00 0.00 0.00 0.00 0.00 0.00 0.00 0.00 0.00
0.00 0.00 0.00 0.00 0.00 0.00 0.00 0.00 0.00 0.00 0.00 0.00 0.00 0.00 0.00 0.00 0.00 0.00 0.00 0.00 0.00 0.00 0.00 0.00 0.00 0.00 0.00 0.00 0.00 0.00 0.00 0.00 0.00 0.00 0.00 0.00 0.00 0.00 0.00 0.00 0.00 0.00 0.00 0.00 0.00
0.00 0.00 0.00 0.00 0.00 0.00 0.00 0.00 0.00 0.00 0.00 0.00 0.00 0.00 0.00 0.00 0.00 0.00 0.00 0.00 0.00 0.00 0.00 0.00 0.00 0.00 0.00 0.00 0.00 0.00 0.00 0.00 0.00 0.00 0.00 0.00 0.00 0.00 0.00 0.00 0.00 0.00 0.00 0.00 0.00
0.00 0.00 0.00 0.00 0.00 0.00 0.00 0.00 0.00 0.00 0.00 0.00 0.00 0.00 0.00 0.00 0.00 0.00 0.00 0.00 0.00 0.00 0.00 0.00 0.00 0.00 0.00 0.00 0.00 0.00 0.00 0.00 0.00 0.00 0.00 0.00 0.00 0.00 0.00 0.00 0.00 0.00 0.00 0.00 0.00
0.00 0.00 0.00 0.00 0.00 0.00 0.00 0.00 0.00 0.00 0.00 0.00 0.00 0.00 0.00 0.00 0.00 0.00 0.00 0.00 0.00 0.00 0.00 0.00 0.00 0.00 0.00 0.00 0.00 0.00 0.00 0.00 0.00 0.00 0.00 0.00 0.00 0.00 0.00 0.00 0.00 0.00 0.00 0.00 0.00
0.00 0.00 0.00 0.00 0.00 0.00 0.00 0.00 0.00 0.00 0.00 0.00 0.00 0.00 0.00 0.00 0.00 0.00 0.00 0.00 0.00 0.00 0.00 0.00 0.00 0.00 0.00 0.00 0.00 0.00 0.00 0.00 0.00 0.00 0.00 0.00 0.00 0.00 0.00 0.00 0.00 0.00 0.00 0.00 0.00
0.00 0.00 0.00 0.00 0.00 0.00 0.00 0.00 0.00 0.00 0.00 0.00 0.00 0.00 0.00 0.00 0.00 0.00 0.00 0.00 0.00 0.00 0.00 0.00 0.00 0.00 0.00 0.00 0.00 0.00 0.00 0.00 0.00 0.00 0.00 0.00 0.00 0.00 0.00 0.00 0.00 0.00 0.00 0.00 0.00
0.00 0.00 0.00 0.00 0.00 0.00 0.00 0.00 0.00 0.00 0.00 0.00 0.00 0.00 0.00 0.00 0.00 0.00 0.00 0.00 0.00 0.00 0.00 0.00 0.00 0.00 0.00 0.00 0.00 0.00 0.00 0.00 0.00 0.00 0.00 0.00 0.00 0.00 0.00 0.00 0.00 0.00 0.00 0.00 0.00
0.00 0.00 0.00 0.00 0.00 0.00 0.00 0.00 0.00 0.00 0.00 0.00 0.00 0.00 0.00 0.00 0.00 0.00 0.00 0.00 0.00 0.00 0.00 0.00 0.00 0.00 0.00 0.00 0.00 0.00 0.00 0.00 0.00 0.00 0.00 0.00 0.00 0.00 0.00 0.00 0.00 0.00 0.00 0.00 0.00
0.00 0.00 0.00 0.00 0.00 0.00 0.00 0.00 0.00 0.00 0.00 0.00 0.00 0.00 0.00 0.00 0.00 0.00 0.00 0.00 0.00 0.00 0.00 0.00 0.00 0.00 0.00 0.00 0.00 0.00 0.00 0.00 0.00 0.00 0.00 0.00 0.01 0.01 0.00 0.00 0.00 0.00 0.00 0.00 0.00
0.00 0.00 0.00 0.00 0.00 0.00 0.00 0.00 0.00 0.00 0.00 0.00 0.00 0.00 0.00 0.00 0.00 0.00 0.00 0.00 0.00 0.00 0.00 0.00 0.00 0.00 0.00 0.00 0.00 0.00 0.00 0.00 0.00 0.00 0.00 0.00 0.04 0.00 0.00 0.00 0.00 0.00 0.00 0.00 0.00
0.00 0.00 0.00 0.00 0.00 0.00 0.00 0.00 0.00 0.00 0.00 0.00 0.00 0.00 0.00 0.00 0.00 0.00 0.00 0.00 0.00 0.00 0.00 0.00 0.00 0.00 0.00 0.00 0.00 0.00 0.00 0.00 0.00 0.00 0.00 0.00 0.02 0.01 0.00 0.00 0.00 0.00 0.00 0.00 0.00
0.00 0.00 0.00 0.00 0.00 0.00 0.00 0.00 0.00 0.00 0.00 0.00 0.00 0.00 0.00 0.00 0.00 0.00 0.00 0.00 0.00 0.00 0.00 0.00 0.00 0.00 0.00 0.00 0.00 0.00 0.00 0.00 0.00 0.00 0.01 0.01 0.02 0.01 0.01 0.02 0.00 0.00 0.00 0.00 0.00
0.00 0.00 0.00 0.00 0.00 0.00 0.00 0.00 0.00 0.00 0.00 0.00 0.00 0.00 0.00 0.00 0.00 0.00 0.00 0.00 0.00 0.00 0.00 0.00 0.00 0.00 0.00 0.00 0.00 0.00 0.00 0.00 0.00 0.02 0.01 0.01 0.00 0.01 0.00 0.00 0.00 0.00 0.00 0.00 0.00
0.00 0.00 0.00 0.00 0.00 0.00 0.00 0.00 0.00 0.00 0.00 0.00 0.00 0.00 0.00 0.00 0.00 0.00 0.00 0.00 0.00 0.00 0.00 0.00 0.00 0.00 0.00 0.00 0.00 0.00 0.00 0.00 0.01 0.03 0.03 0.01 0.01 0.01 0.00 0.00 0.00 0.00 0.00 0.00 0.00
0.00 0.00 0.00 0.00 0.00 0.00 0.00 0.00 0.00 0.00 0.00 0.00 0.00 0.00 0.00 0.00 0.00 0.00 0.00 0.00 0.00 0.00 0.00 0.00 0.00 0.00 0.00 0.00 0.00 0.00 0.00 0.00 0.01 0.02 0.03 0.01 0.01 0.01 0.00 0.00 0.00 0.00 0.00 0.00 0.00
0.00 0.00 0.00 0.00 0.00 0.00 0.00 0.00 0.00 0.00 0.00 0.00 0.00 0.00 0.00 0.00 0.00 0.00 0.00 0.00 0.00 0.00 0.00 0.00 0.00 0.00 0.00 0.00 0.00 0.00 0.00 0.00 0.01 0.01 0.01 0.01 0.00 0.00 0.00 0.00 0.00 0.00 0.00 0.00 0.00
0.00 0.00 0.00 0.00 0.00 0.00 0.00 0.00 0.00 0.00 0.00 0.00 0.00 0.00 0.00 0.00 0.00 0.00 0.00 0.00 0.00 0.00 0.00 0.00 0.00 0.00 0.00 0.00 0.00 0.00 0.00 0.00 0.01 0.00 0.00 0.01 0.01 0.00 0.00 0.00 0.00 0.00 0.00 0.00 0.00
0.00 0.00 0.00 0.00 0.00 0.00 0.00 0.00 0.00 0.00 0.00 0.00 0.00 0.00 0.00 0.00 0.00 0.00 0.00 0.00 0.00 0.00 0.00 0.00 0.00 0.00 0.00 0.00 0.00 0.00 0.00 0.00 0.00 0.00 0.00 0.00 0.00 0.00 0.00 0.00 0.00 0.00 0.00 0.00 0.00
0.00 0.00 0.00 0.00 0.00 0.00 0.00 0.00 0.00 0.00 0.00 0.00 0.00 0.00 0.00 0.00 0.00 0.00 0.00 0.00 0.00 0.00 0.00 0.00 0.00 0.00 0.00 0.00 0.00 0.00 0.00 0.00 0.00 0.00 0.00 0.00 0.00 0.00 0.00 0.00 0.00 0.00 0.00 0.00 0.00
0.00 0.00 0.00 0.00 0.00 0.00 0.00 0.00 0.00 0.00 0.00 0.00 0.00 0.00 0.00 0.00 0.00 0.00 0.00 0.00 0.00 0.00 0.00 0.00 0.00 0.00 0.00 0.00 0.00 0.00 0.00 0.00 0.00 0.00 0.00 0.00 0.00 0.00 0.00 0.00 0.00 0.00 0.00 0.00 0.00
0.00 0.00 0.00 0.00 0.00 0.00 0.00 0.00 0.00 0.00 0.00 0.00 0.00 0.00 0.00 0.00 0.00 0.00 0.00 0.00 0.00 0.00 0.00 0.00 0.00 0.00 0.00 0.00 0.00 0.00 0.00 0.00 0.00 0.00 0.00 0.00 0.00 0.00 0.00 0.00 0.00 0.00 0.00 0.00 0.00
0.00 0.00 0.00 0.00 0.00 0.00 0.00 0.00 0.00 0.00 0.00 0.00 0.00 0.00 0.00 0.00 0.00 0.00 0.00 0.00 0.00 0.00 0.00 0.00 0.00 0.00 0.00 0.00 0.00 0.00 0.00 0.00 0.00 0.00 0.00 0.00 0.00 0.00 0.00 0.00 0.00 0.00 0.00 0.00 0.00
0.00 0.00 0.00 0.00 0.00 0.00 0.00 0.00 0.00 0.00 0.00 0.00 0.00 0.00 0.00 0.00 0.00 0.00 0.00 0.00 0.00 0.00 0.00 0.00 0.00 0.00 0.00 0.00 0.00 0.00 0.00 0.00 0.00 0.00 0.00 0.00 0.00 0.00 0.00 0.00 0.00 0.00 0.00 0.00 0.00
MSLP
1019.98 1019.62 1019.33 1019.21 1019.07 1018.90 1018.62 1018.36 1018.14 1017.96 1017.71 1017.32 1017.04 1016.77 1016.49 1016.41 1015.72 1014.52 1015.03 1017.62 1016.98 1016.14 1015.28 1013.74 1013.03 1012.57 1012.09 1011.68 1011.67 1011.27 1009.85 1009.90 1010.76 1011.08 1011.63 1012.54 1012.15 1013.36 1014.21 1014.97 1016.18 1017.35 1018.47 1019.31 1019.21
1020.17 1019.89 1019.62 1019.41 1019.17 1018.94 1018.70 1018.56 1018.33 1017.92 1017.63 1017.30 1017.00 1016.57 1016.36 1016.31 1015.46 1014.99 1017.26 1016.85 1016.37 1015.73 1014.27 1013.46 1012.65 1012.33 1011.77 1011.83 1011.81 1010.88 1010.49 1011.57 1012.74 1012.82 1013.40 1014.14 1014.14 1014.95 1015.00 1016.21 1017.33 1018.05 1018.82 1019.23 1019.10
1020.34 1020.07 1019.83 1019.59 1019.35 1019.11 1018.86 1018.60 1018.26 1018.00 1017.77 1017.41 1016.81 1016.49 1016.33 1015.93 1014.91 1016.26 1017.05 1016.85 1016.27 1015.39 1014.53 1013.96 1013.33 1012.50 1012.08 1012.09 1012.47 1012.19 1012.29 1013.30 1013.95 1014.47 1014.17 1014.75 1016.15 1017.33 1016.46 1017.74 1019.53 1019.58 1019.50 1019.44 1019.19
1020.50 1020.20 1019.93 1019.69 1019.44 1019.20 1018.96 1018.74 1018.44 1018.09 1017.63 1017.29 1016.86 1016.42 1015.79 1015.51 1016.83 1017.52 1017.66 1016.91 1016.23 1014.85 1014.10 1013.35 1012.89 1012.58 1012.52 1012.89 1013.41 1013.50 1014.66 1014.53 1015.77 1015.47 1015.48 1016.33 1017.78 1019.21 1019.92 1020.91 1021.30 1021.03 1020.79 1020.27 1019.71
1020.57 1020.38 1020.17 1019.92 1019.65 1019.36 1019.09 1018.80 1018.46 1018.25 1017.86 1017.51 1016.98 1016.50 1015.82 1015.90 1018.40 1018.49 1017.66 1016.58 1015.62 1014.82 1014.24 1013.95 1013.50 1013.25 1013.36 1013.99 1014.07 1014.31 1015.24 1016.03 1016.60 1017.17 1017.70 1018.24 1019.02 1020.07 1021.41 1022.10 1022.00 1021.65 1021.23 1020.79 1020.62
1020.70 1020.48 1020.23 1019.94 1019.67 1019.43 1019.15 1018.88 1018.59 1018.45 1018.30 1017.98 1017.29 1016.39 1015.93 1016.77 1019.53 1018.73 1017.83 1016.73 1016.08 1015.54 1015.45 1015.05 1014.83 1014.59 1014.84 1015.23 1015.26 1016.13 1016.51 1016.96 1017.51 1017.89 1018.80 1019.17 1020.08 1020.40 1022.25 1022.68 1022.35 1022.15 1021.76 1021.52 1021.38
1020.68 1020.40 1020.11 1019.82 1019.52 1019.27 1019.04 1018.81 1018.67 1018.48 1018.27 1018.12 1017.83 1017.30 1016.38 1019.86 1019.62 1019.00 1018.32 1017.67 1017.29 1016.82 1016.42 1016.77 1016.36 1015.87 1016.22 1016.27 1017.19 1016.99 1016.65 1017.21 1018.39 1018.72 1019.35 1019.64 1019.92 1022.19 1023.46 1023.25 1022.92 1022.80 1022.64 1022.32 1022.04
1020.65 1020.31 1019.99 1019.69 1019.45 1019.27 1019.04 1018.86 1018.64 1018.48 1018.33 1018.19 1017.91 1017.35 1018.40 1020.26 1019.92 1019.26 1018.61 1018.27 1018.27 1017.92 1017.91 1018.22 1017.62 1017.22 1017.37 1018.17 1018.01 1017.83 1017.65 1017.73 1018.61 1020.06 1020.27 1020.71 1020.26 1023.33 1024.14 1023.84 1023.64 1023.57 1023.39 1023.10 1022.59
1020.68 1020.36 1020.06 1019.74 1019.42 1019.18 1018.98 1018.75 1018.69 1018.59 1018.38 1017.96 1017.58 1017.32 1019.32 1020.21 1019.79 1019.88 1019.58 1018.68 1018.62 1018.61 1018.74 1018.67 1018.51 1019.26 1018.89 1017.84 1017.79 1018.75 1019.14 1019.40 1019.75 1020.37 1021.60 1021.54 1021.26 1024.38 1024.97 1024.80 1024.62 1024.43 1024.18 1023.82 1023.29
1020.68 1020.32 1020.05 1019.65 1019.32 1019.13 1018.89 1018.76 1018.67 1017.79 1018.04 1017.75 1018.11 1018.26 1020.71 1021.09 1021.06 1020.64 1020.21 1018.99 1018.58 1018.28 1018.50 1018.64 1019.22 1020.22 1020.99 1020.50 1020.89 1021.33 1021.09 1020.95 1020.79 1021.50 1022.59 1022.32 1023.70 1025.29 1025.95 1025.91 1025.79 1025.45 1025.00 1024.58 1024.04
1020.69 1020.31 1019.97 1019.74 1019.38 1019.12 1018.93 1018.34 1018.18 1019.06 1019.19 1020.12 1020.99 1021.06 1021.92 1021.89 1021.40 1021.21 1020.58 1019.80 1018.79 1019.14 1019.36 1020.56 1020.41 1022.04 1023.51 1023.99 1023.99 1023.29 1022.45 1021.83 1022.17 1023.23 1023.77 1023.87 1024.60 1025.83 1026.71 1026.95 1026.73 1026.16 1025.76 1025.19 1024.70
1020.91 1020.50 1020.13 1019.81 1019.58 1019.22 1018.46 1018.78 1020.05 1020.16 1020.69 1021.39 1021.84 1022.27 1022.77 1022.23 1021.78 1022.23 1021.78 1020.91 1020.64 1020.22 1020.19 1020.66 1023.10 1025.00 1025.24 1025.40 1024.91 1024.11 1023.53 1022.98 1023.17 1023.61 1024.29 1023.84 1025.22 1027.27 1028.08 1028.48 1028.20 1027.48 1026.60 1025.98 1025.34
1020.98 1020.54 1020.16 1019.86 1019.62 1019.39 1019.45 1020.46 1020.86 1020.57 1020.00 1021.91 1022.31 1022.69 1023.23 1023.30 1023.79 1023.91 1023.63 1022.75 1022.41 1022.63 1023.17 1023.69 1025.89 1026.04 1025.93 1025.59 1025.55 1024.40 1024.13 1024.05 1023.87 1023.86 1024.13 1024.60 1026.37 1027.64 1028.73 1029.07 1029.12 1028.80 1027.84 1026.77 1026.04
1021.12 1020.71 1020.17 1019.80 1019.83 1020.19 1020.35 1021.15 1021.05 1020.94 1020.12 1022.75 1022.70 1023.72 1023.54 1023.36 1024.13 1025.39 1025.12 1024.53 1023.83 1023.91 1024.42 1025.52 1026.74 1026.75 1026.20 1026.44 1026.48 1024.76 1025.08 1024.38 1023.52 1023.68 1023.15 1025.11 1026.18 1028.05 1028.63 1028.86 1029.20 1029.03 1028.44 1027.72 1026.59
1021.21 1020.77 1020.33 1019.52 1019.94 1020.12 1021.18 1021.26 1021.10 1020.91 1020.79 1023.72 1023.84 1024.69 1024.62 1024.48 1025.69 1026.01 1025.94 1024.86 1024.90 1025.16 1024.43 1027.17 1027.34 1027.41 1027.07 1027.25 1027.09 1026.17 1025.19 1023.76 1023.59 1023.63 1024.41 1025.23 1026.23 1028.76 1029.52 1029.48 1029.53 1029.26 1028.62 1028.11 1027.61
1021.42 1020.83 1020.50 1020.07 1020.26 1021.47 1021.42 1021.25 1021.00 1020.71 1022.85 1024.00 1024.42 1024.66 1024.71 1025.68 1026.34 1026.68 1026.41 1026.12 1026.37 1025.99 1026.57 1027.65 1028.34 1028.42 1028.57 1027.76 1027.30 1026.32 1024.61 1022.70 1023.64 1023.71 1024.63 1026.99 1027.38 1029.70 1030.71 1030.92 1030.32 1029.71 1029.20 1028.43 1027.66
1021.70 1021.32 1020.56 1020.94 1021.26 1021.74 1021.49 1020.87 1020.42 1021.77 1024.55 1024.53 1024.86 1025.21 1025.50 1026.26 1026.70 1027.19 1027.01 1026.79 1026.69 1025.92 1026.59 1027.14 1028.07 1028.60 1029.08 1028.18 1027.48 1026.93 1025.68 1023.49 1023.39 1024.29 1026.49 1028.77 1029.12 1031.67 1031.79 1031.37 1030.85 1030.17 1029.58 1029.06 1028.17
1021.73 1021.52 1022.19 1022.13 1021.99 1021.81 1021.15 1020.35 1021.46 1023.77 1024.37 1025.32 1025.44 1025.68 1025.86 1026.76 1027.27 1027.58 1027.41 1027.37 1028.22 1027.80 1027.56 1027.37 1027.56 1029.23 1029.70 1029.66 1029.22 1027.94 1027.44 1027.48 1026.88 1026.35 1027.61 1029.51 1030.76 1031.82 1031.92 1031.24 1030.79 1030.35 1029.77 1029.19 1028.54
1021.76 1021.56 1021.75 1022.38 1022.33 1021.83 1020.76 1021.56 1023.43 1024.22 1025.24 1025.43 1025.61 1025.40 1025.95 1026.75 1027.26 1027.51 1028.16 1028.64 1029.49 1029.33 1028.72 1028.61 1028.78 1029.73 1030.35 1030.37 1030.36 1029.33 1028.73 1028.66 1028.68 1027.78 1028.11 1029.57 1031.36 1031.92 1031.20 1031.01 1030.66 1030.22 1029.68 1029.03 1028.44
1021.11 1021.31 1022.14 1022.75 1022.46 1021.46 1021.02 1023.40 1024.80 1025.58 1025.86 1025.90 1025.48 1026.20 1025.91 1026.73 1026.96 1027.27 1028.23 1029.85 1029.87 1030.37 1030.19 1029.92 1028.99 1029.71 1030.62 1030.31 1030.34 1030.41 1030.43 1029.47 1028.96 1028.84 1028.72 1029.55 1030.61 1030.95 1031.42 1031.24 1030.77 1030.21 1029.61 1028.93 1028.41
1021.20 1020.97 1022.62 1022.76 1022.36 1021.37 1022.60 1024.36 1025.55 1026.33 1026.38 1026.36 1026.30 1026.46 1026.91 1027.28 1027.62 1027.98 1029.08 1030.11 1030.41 1030.48 1030.62 1030.39 1030.08 1029.50 1029.74 1031.04 1030.90 1030.61 1030.46 1030.60 1030.19 1030.38 1030.32 1029.75 1030.11 1031.59 1031.89 1031.55 1030.89 1030.38 1029.81 1029.10 1028.53
1021.34 1021.22 1022.77 1022.69 1022.13 1023.01 1024.02 1025.04 1026.16 1026.53 1026.86 1026.96 1027.12 1027.25 1027.36 1027.72 1027.81 1028.29 1028.92 1029.65 1030.73 1030.76 1030.48 1030.79 1030.38 1029.37 1030.00 1031.34 1031.66 1031.71 1031.58 1031.40 1031.29 1030.84 1030.74 1030.81 1030.51 1030.88 1031.49 1031.30 1030.88 1030.62 1030.18 1029.54 1028.96
1021.08 1021.85 1022.63 1022.51 1022.88 1024.08 1025.23 1025.88 1026.43 1026.71 1027.07 1027.20 1027.44 1027.89 1028.16 1027.91 1028.11 1028.68 1029.31 1030.31 1030.81 1030.76 1030.61 1030.79 1030.13 1029.53 1029.21 1031.08 1031.01 1031.02 1031.85 1032.02 1032.14 1032.35 1031.75 1031.09 1030.32 1030.68 1030.78 1031.36 1031.11 1030.79 1030.66 1029.96 1029.16
1021.47 1022.11 1022.50 1022.89 1023.58 1023.58 1024.63 1025.74 1026.57 1027.35 1027.55 1027.70 1027.82 1028.14 1028.13 1028.10 1028.53 1028.67 1029.29 1030.32 1030.86 1030.82 1031.39 1031.27 1030.72 1031.00 1030.77 1030.93 1030.91 1031.24 1031.59 1032.05 1032.87 1032.25 1031.95 1031.18 1030.88 1030.92 1030.96 1031.37 1031.33 1031.16 1030.85 1030.24 1029.38
1022.26 1023.46 1024.06 1024.15 1024.31 1024.30 1024.72 1025.56 1026.17 1027.01 1027.68 1027.86 1027.99 1027.96 1028.00 1027.94 1028.35 1028.73 1029.51 1030.06 1030.69 1031.06 1031.08 1030.84 1030.23 1030.29 1030.56 1030.58 1030.61 1031.12 1031.61 1031.75 1032.08 1032.69 1032.66 1031.54 1031.61 1031.37 1031.32 1031.31 1031.33 1031.16 1030.66 1030.11 1029.50
1023.06 1023.46 1024.24 1024.68 1024.93 1024.69 1025.32 1025.53 1025.90 1026.97 1027.24 1027.57 1027.63 1028.06 1028.31 1028.31 1028.72 1028.76 1029.39 1029.66 1029.78 1030.58 1030.57 1030.81 1030.08 1030.04 1029.86 1030.49 1031.15 1030.67 1030.87 1030.97 1031.20 1031.73 1032.34 1031.93 1031.15 1030.47 1030.69 1030.38 1030.67 1030.54 1030.27 1029.97 1029.49
1024.30 1024.33 1023.48 1025.27 1025.09 1024.89 1025.14 1025.64 1026.07 1026.76 1027.80 1027.72 1027.90 1028.20 1028.55 1028.85 1029.21 1029.37 1029.59 1029.70 1029.83 1030.04 1030.18 1030.38 1030.04 1029.75 1029.17 1030.16 1030.61 1029.89 1029.92 1030.41 1030.63 1030.90 1031.51 1031.02 1030.48 1030.57 1030.62 1030.39 1030.30 1030.01 1029.86 1029.52 1029.34
Thickness
5627 5630 5632 5633 5635 5636 5639 5641 5644 5646 5648 5651 5653 5655 5658 5659 5662 5668 5659 5642 5648 5654 5660 5669 5671 5672 5674 5669 5670 5671 5665 5656 5651 5652 5650 5651 5655 5651 5650 5642 5635 5628 5621 5620 5624
5627 5629 5630 5632 5634 5636 5638 5639 5642 5645 5647 5651 5653 5657 5658 5658 5661 5659 5643 5647 5651 5655 5663 5663 5663 5665 5662 5659 5658 5661 5655 5642 5640 5642 5633 5630 5635 5629 5634 5625 5619 5616 5615 5615 5620
5627 5629 5630 5632 5634 5635 5638 5640 5643 5645 5647 5650 5654 5656 5657 5657 5660 5643 5643 5645 5649 5653 5657 5657 5656 5657 5649 5652 5643 5644 5634 5630 5626 5623 5632 5626 5610 5603 5619 5607 5593 5596 5600 5604 5609
5627 5629 5631 5632 5634 5636 5638 5640 5642 5644 5647 5649 5651 5653 5657 5658 5628 5636 5636 5641 5645 5651 5654 5655 5653 5645 5639 5629 5631 5618 5613 5616 5603 5610 5612 5604 5594 5579 5576 5570 5572 5579 5583 5589 5594
5628 5629 5630 5631 5633 5635 5638 5640 5642 5642 5644 5646 5648 5651 5655 5643 5620 5626 5632 5639 5644 5648 5646 5642 5639 5637 5625 5620 5619 5611 5603 5597 5593 5587 5582 5581 5573 5566 5557 5555 5559 5564 5570 5574 5578
5628 5630 5631 5633 5635 5636 5638 5639 5640 5640 5639 5641 5644 5648 5647 5628 5616 5620 5626 5634 5636 5636 5630 5631 5625 5627 5615 5606 5603 5593 5586 5581 5577 5572 5564 5561 5554 5558 5542 5541 5546 5549 5554 5557 5559
5630 5632 5634 5635 5637 5638 5639 5639 5639 5638 5638 5637 5637 5637 5635 5604 5613 5615 5618 5621 5622 5623 5618 5615 5615 5609 5602 5594 5587 5583 5579 5573 5558 5556 5548 5551 5547 5524 5518 5524 5528 5530 5534 5538 5542
5632 5634 5636 5637 5637 5637 5637 5637 5637 5636 5634 5633 5633 5633 5612 5605 5606 5612 5614 5614 5612 5612 5607 5601 5602 5596 5588 5577 5572 5566 5567 5557 5550 5531 5531 5528 5537 5501 5497 5502 5507 5508 5513 5517 5524
5633 5634 5635 5636 5637 5637 5636 5636 5633 5632 5631 5632 5632 5629 5604 5605 5604 5603 5604 5605 5605 5602 5597 5594 5588 5572 5571 5574 5570 5555 5538 5530 5525 5521 5507 5505 5509 5475 5473 5477 5480 5485 5489 5494 5502
5634 5635 5635 5636 5637 5636 5635 5632 5631 5635 5632 5631 5627 5621 5597 5589 5594 5597 5598 5603 5600 5600 5591 5585 5575 5559 5544 5546 5530 5513 5509 5507 5503 5494 5480 5481 5460 5446 5445 5448 5451 5457 5463 5470 5479
5633 5635 5636 5635 5636 5635 5634 5637 5634 5619 5618 5601 5593 5593 5586 5590 5593 5589 5592 5593 5599 5588 5578 5565 5556 5531 5511 5498 5489 5486 5484 5478 5466 5448 5439 5434 5424 5412 5416 5417 5422 5431 5437 5446 5453
5632 5633 5635 5634 5633 5633 5634 5627 5616 5616 5598 5599 5592 5587 5582 5587 5584 5579 5583 5582 5577 5571 5572 5562 5522 5498 5489 5475 5468 5464 5453 5448 5439 5426 5410 5418 5390 5369 5370 5369 5379 5393 5408 5417 5428
5631 5633 5633 5632 5631 5629 5625 5616 5612 5614 5612 5591 5589 5584 5579 5579 5567 5563 5564 5563 5557 5545 5532 5520 5491 5486 5476 5468 5449 5449 5432 5416 5407 5404 5398 5395 5359 5352 5343 5343 5344 5350 5369 5387 5398
5629 5630 5633 5632 5629 5622 5618 5611 5611 5611 5617 5582 5584 5577 5577 5577 5564 5550 5546 5545 5542 5533 5522 5503 5485 5474 5470 5447 5428 5435 5414 5403 5403 5395 5406 5386 5358 5343 5343 5337 5328 5328 5336 5348 5368
5627 5628 5630 5631 5626 5624 5614 5612 5612 5614 5609 5581 5578 5573 5569 5563 5548 5542 5539 5541 5530 5520 5528 5477 5470 5458 5447 5425 5410 5404 5403 5406 5396 5393 5388 5381 5374 5332 5328 5322 5316 5317 5324 5329 5336
5624 5627 5627 5627 5623 5614 5613 5613 5615 5617 5582 5576 5574 5566 5566 5552 5541 5535 5531 5528 5517 5513 5499 5473 5461 5446 5425 5419 5402 5401 5405 5415 5398 5400 5379 5355 5363 5316 5304 5298 5307 5312 5315 5321 5328
5621 5622 5625 5620 5620 5613 5614 5619 5618 5589 5574 5573 5566 5562 5558 5545 5538 5527 5524 5517 5511 5516 5493 5477 5454 5438 5418 5409 5403 5389 5384 5401 5404 5385 5364 5328 5334 5289 5294 5299 5302 5305 5308 5309 5317
5620 5619 5614 5612 5612 5613 5619 5625 5590 5575 5575 5566 5563 5558 5553 5540 5531 5523 5520 5515 5494 5493 5482 5475 5461 5419 5401 5381 5364 5368 5361 5340 5331 5360 5352 5324 5300 5294 5296 5305 5305 5305 5306 5308 5310
5619 5618 5615 5610 5611 5614 5626 5589 5588 5584 5571 5566 5564 5566 5556 5541 5532 5525 5507 5495 5474 5469 5471 5454 5438 5414 5388 5373 5361 5352 5348 5350 5330 5355 5349 5329 5300 5293 5307 5304 5302 5301 5304 5306 5310
5624 5620 5614 5609 5611 5620 5620 5585 5579 5572 5568 5565 5571 5555 5559 5541 5536 5528 5510 5477 5470 5454 5447 5435 5437 5410 5382 5376 5366 5348 5338 5333 5343 5324 5330 5323 5304 5306 5292 5291 5296 5297 5299 5304 5306
5622 5624 5610 5609 5613 5622 5593 5585 5574 5566 5565 5564 5559 5554 5544 5534 5524 5516 5493 5475 5464 5452 5442 5430 5421 5417 5398 5358 5349 5348 5338 5327 5328 5324 5313 5318 5318 5288 5280 5284 5287 5291 5294 5298 5300
5620 5620 5609 5609 5615 5603 5591 5583 5570 5567 5562 5557 5551 5545 5539 5526 5523 5512 5499 5482 5459 5449 5440 5426 5417 5414 5395 5368 5355 5342 5327 5323 5311 5317 5321 5309 5305 5304 5289 5287 5287 5284 5284 5286 5289
5621 5616 5609 5610 5585 5581 5579 5572 5568 5566 5559 5554 5548 5537 5527 5527 5523 5504 5488 5471 5457 5449 5439 5425 5421 5413 5406 5365 5356 5350 5334 5323 5314 5297 5292 5301 5307 5304 5297 5282 5281 5277 5273 5275 5277
5620 5603 5609 5605 5599 5598 5587 5575 5566 5556 5551 5547 5542 5533 5529 5525 5511 5505 5489 5467 5454 5448 5426 5419 5412 5385 5384 5370 5369 5345 5338 5327 5300 5302 5296 5301 5296 5292 5288 5273 5272 5269 5265 5267 5270
5610 5591 5590 5583 5585 5590 5586 5577 5570 5561 5550 5545 5540 5537 5532 5529 5515 5502 5483 5470 5453 5440 5433 5425 5418 5408 5394 5385 5374 5351 5335 5331 5313 5295 5283 5296 5278 5279 5275 5270 5264 5262 5264 5264 5264
5603 5599 5591 5584 5582 5586 5574 5577 5574 5556 5557 5550 5547 5533 5525 5522 5509 5501 5483 5474 5467 5446 5437 5424 5423 5412 5402 5380 5354 5357 5348 5342 5329 5310 5278 5278 5283 5291 5284 5282 5270 5266 5263 5259 5259
5588 5588 5600 5564 5580 5585 5580 5574 5570 5561 5543 5547 5542 5534 5524 5516 5502 5493 5481 5471 5462 5450 5439 5426 5421 5415 5407 5383 5359 5367 5355 5341 5332 5321 5296 5290 5295 5286 5273 5271 5266 5264 5261 5258 5255